Weather History for Detroit Lakes, MN

Change the Weather History Date:

Monday, June 9, 2014

  Actual Average Record
Temperature  
Mean Temperature 64 °F -  
Max Temperature 73 °F 75 °F 92 °F (1976)
Min Temperature 55 °F 47 °F 30 °F (1989)
Degree Days  
Heating Degree Days 1    
Growing Degree Days 14 (Base 50)    
Moisture  
Dew Point 46 °F    
Average Humidity 54    
Maximum Humidity 82    
Minimum Humidity 29    
Precipitation  
Precipitation 0.00 in - - ()
Sea Level Pressure  
Sea Level Pressure 30.00 in    
Wind  
Wind Speed 5 mph (WSW)    
Max Wind Speed 14 mph    
Max Gust Speed 22 mph    
Visibility 10 miles    
Events      
Averages and records for this station are not official NWS values.
T = Trace of Precipitation, MM = Missing Value Source: NWS Daily Summary

Daily Weather History Graph

Daily Weather History Graph

Search for Another Location

Airport:

Trip Planner

Search our weather history database for the weather conditions in past years. The results will help you decide how hot, cold, wet, or windy it might be!

Date:

Astronomy

Jun. 09, 2014 Rise Set
Actual Time 5:29 AM CDT 9:16 PM CDT
Civil Twilight 4:50 AM CDT 9:55 PM CDT
Nautical Twilight 3:57 AM CDT 10:48 PM CDT
Astronomical Twilight 2:41 AM CDT 12:05 AM CDT
Moon 5:26 PM CDT (6/9) 3:11 AM CDT (6/9)
Length of Visible Light 17h 05m
Length of Day
15h 46m
Waxing Gibbous, 85% of the Moon is Illuminated
Jun 9
Waxing Gibbous
Jun 12
Full
Jun 19
Last Quarter
Jun 27
New
Jul 5
First Quarter

Hourly Weather History & Observations

Time (CDT) Temp. Dew Point Humidity Pressure Visibility Wind Dir Wind Speed Gust Speed Precip Events Conditions
12:15 AM 59.0 °F 44.6 °F 59% 30.04 in 10.0 mi South 4.6 mph - N/A   Clear
12:35 AM 59.0 °F 44.6 °F 59% 30.04 in 10.0 mi SSW 4.6 mph - N/A   Clear
12:54 AM 59.0 °F 44.6 °F 59% 30.04 in 10.0 mi SSW 4.6 mph - N/A   Scattered Clouds
1:15 AM 60.8 °F 44.6 °F 55% 30.03 in 10.0 mi SW 5.8 mph - N/A   Scattered Clouds
1:35 AM 60.8 °F 44.6 °F 55% 30.04 in 10.0 mi SW 8.1 mph - N/A   Scattered Clouds
1:54 AM 60.8 °F 44.6 °F 55% 30.04 in 10.0 mi SW 5.8 mph - N/A   Scattered Clouds
2:14 AM 59.0 °F 44.6 °F 59% 30.03 in 10.0 mi SW 5.8 mph - N/A   Scattered Clouds
2:35 AM 57.2 °F 46.4 °F 67% 30.03 in 10.0 mi SW 4.6 mph - N/A   Clear
2:54 AM 57.2 °F 46.4 °F 67% 30.02 in 10.0 mi SW 4.6 mph - N/A   Clear
3:14 AM 57.2 °F 46.4 °F 67% 30.03 in 10.0 mi SW 4.6 mph - N/A   Clear
3:35 AM 55.4 °F 44.6 °F 67% 30.03 in 10.0 mi SW 5.8 mph - N/A   Clear
3:54 AM 55.4 °F 46.4 °F 72% 30.03 in 10.0 mi SW 6.9 mph - N/A   Clear
4:14 AM 55.4 °F 46.4 °F 72% 30.03 in 10.0 mi SW 5.8 mph - N/A   Clear
4:35 AM 55.4 °F 46.4 °F 72% 30.03 in 10.0 mi SW 4.6 mph - N/A   Clear
4:54 AM 55.4 °F 46.4 °F 72% 30.03 in 10.0 mi South 3.5 mph - N/A   Clear
5:14 AM 55.4 °F 48.2 °F 77% 30.03 in 10.0 mi Calm Calm - N/A   Clear
5:35 AM 55.4 °F 48.2 °F 77% 30.02 in 10.0 mi Calm Calm - N/A   Clear
5:54 AM 55.4 °F 48.2 °F 77% 30.02 in 10.0 mi Calm Calm - N/A   Clear
6:15 AM 55.4 °F 48.2 °F 77% 30.03 in 10.0 mi Calm Calm - N/A   Clear
6:34 AM 55.4 °F 48.2 °F 77% 30.03 in 10.0 mi Calm Calm - N/A   Clear
6:54 AM 55.4 °F 50.0 °F 82% 30.03 in 10.0 mi Calm Calm - N/A   Clear
7:15 AM 55.4 °F 50.0 °F 82% 30.04 in 10.0 mi Calm Calm - N/A   Clear
7:34 AM 55.4 °F 50.0 °F 82% 30.03 in 10.0 mi Calm Calm - N/A   Clear
7:54 AM 59.0 °F 50.0 °F 72% 30.03 in 10.0 mi Calm Calm - N/A   Clear
8:15 AM 60.8 °F 50.0 °F 68% 30.03 in 10.0 mi Calm Calm - N/A   Clear
8:34 AM 62.6 °F 48.2 °F 59% 30.03 in 10.0 mi WNW 5.8 mph - N/A   Clear
8:55 AM 62.6 °F 48.2 °F 59% 30.03 in 10.0 mi West 9.2 mph - N/A   Clear
9:14 AM 62.6 °F 48.2 °F 59% 30.03 in 10.0 mi West 5.8 mph - N/A   Clear
9:34 AM 62.6 °F 48.2 °F 59% 30.03 in 10.0 mi West 8.1 mph - N/A   Clear
10:14 AM 64.4 °F 48.2 °F 56% 30.03 in 10.0 mi West 8.1 mph - N/A   Clear
10:34 AM 64.4 °F 50.0 °F 59% 30.03 in 10.0 mi WSW 6.9 mph - N/A   Clear
10:55 AM 68.0 °F 48.2 °F 49% 30.03 in 10.0 mi West 8.1 mph - N/A   Clear
11:35 AM 68.0 °F 48.2 °F 49% 30.03 in 10.0 mi West 8.1 mph - N/A   Clear
11:54 AM 68.0 °F 48.2 °F 49% 30.02 in 10.0 mi WSW 10.4 mph - N/A   Scattered Clouds
12:14 PM 68.0 °F 46.4 °F 46% 30.02 in 10.0 mi SW 8.1 mph 18.4 mph N/A   Scattered Clouds
12:34 PM 68.0 °F 46.4 °F 46% 30.02 in 10.0 mi WSW 12.7 mph 20.7 mph N/A   Clear
12:55 PM 69.8 °F 48.2 °F 46% 30.01 in 10.0 mi West 13.8 mph 21.9 mph N/A   Clear
1:14 PM 69.8 °F 46.4 °F 43% 30.00 in 10.0 mi WSW 11.5 mph 19.6 mph N/A   Scattered Clouds
1:35 PM 71.6 °F 46.4 °F 41% 30.00 in 10.0 mi WSW 9.2 mph - N/A   Scattered Clouds
3:15 PM 71.6 °F 41.0 °F 33% 29.97 in 10.0 mi WSW 6.9 mph - N/A   Clear
3:35 PM 73.4 °F 42.8 °F 33% 29.96 in 10.0 mi West 9.2 mph - N/A   Clear
3:54 PM 73.4 °F 39.2 °F 29% 29.96 in 10.0 mi West 8.1 mph - N/A   Clear
4:15 PM 73.4 °F 41.0 °F 31% 29.96 in 10.0 mi West 9.2 mph - N/A   Clear
4:35 PM 71.6 °F 41.0 °F 33% 29.96 in 10.0 mi West 6.9 mph - N/A   Clear
4:54 PM 73.4 °F 41.0 °F 31% 29.96 in 10.0 mi West 11.5 mph - N/A   Clear
5:15 PM 71.6 °F 42.8 °F 35% 29.96 in 10.0 mi West 4.6 mph - N/A   Clear
5:35 PM 73.4 °F 39.2 °F 29% 29.95 in 10.0 mi West 9.2 mph - N/A   Clear
5:54 PM 71.6 °F 39.2 °F 31% 29.96 in 10.0 mi West 6.9 mph - N/A   Clear
6:15 PM 71.6 °F 41.0 °F 33% 29.96 in 10.0 mi West 3.5 mph - N/A   Clear
6:35 PM 73.4 °F 41.0 °F 31% 29.96 in 10.0 mi West 4.6 mph - N/A   Clear
6:54 PM 73.4 °F 41.0 °F 31% 29.95 in 10.0 mi NW 8.1 mph - N/A   Clear
7:15 PM 69.8 °F 42.8 °F 38% 29.95 in 10.0 mi NW 5.8 mph - N/A   Clear
7:35 PM 71.6 °F 41.0 °F 33% 29.95 in 10.0 mi NW 3.5 mph - N/A   Clear
7:54 PM 71.6 °F 37.4 °F 29% 29.95 in 10.0 mi Calm Calm - N/A   Clear
8:15 PM 71.6 °F 39.2 °F 31% 29.95 in 10.0 mi Calm Calm - N/A   Clear
8:35 PM 71.6 °F 41.0 °F 33% 29.95 in 10.0 mi Calm Calm - N/A   Clear
8:54 PM 69.8 °F 42.8 °F 38% 29.94 in 10.0 mi Calm Calm - N/A   Clear
9:15 PM 68.0 °F 44.6 °F 43% 29.95 in 10.0 mi Calm Calm - N/A   Clear
9:35 PM 64.4 °F 46.4 °F 52% 29.95 in 10.0 mi South 4.6 mph - N/A   Clear
9:54 PM 64.4 °F 50.0 °F 59% 29.95 in 10.0 mi Calm Calm - N/A   Clear
10:15 PM 64.4 °F 50.0 °F 59% 29.95 in 10.0 mi South 3.5 mph - N/A   Clear
10:34 PM 62.6 °F 51.8 °F 68% 29.95 in 10.0 mi South 3.5 mph - N/A   Clear
10:55 PM 62.6 °F 51.8 °F 68% 29.95 in 10.0 mi South 4.6 mph - N/A   Clear
11:15 PM 60.8 °F 51.8 °F 72% 29.95 in 10.0 mi South 4.6 mph - N/A   Clear
11:34 PM 60.8 °F 51.8 °F 72% 29.95 in 10.0 mi SSW 5.8 mph - N/A   Clear
11:54 PM 60.8 °F 51.8 °F 72% 29.95 in 10.0 mi South 5.8 mph - N/A   Clear